Location: Champignolles
(47.0543°N, 4.5663°E)
Time: 08:12:39
(UTC+00:00)

Cosmos 923 Rocket - Pass Details

Date: 15 April 2021
Orbit: 759 x 785 km, 74.0° (Epoch: 13 May)

Event Time Altitude Azimuth Distance (km) Brightness Sun altitude
Rises 02:58:12 0° 335° (NNW) 3,229 7.4 -18.3°
Reaches altitude 10° 03:00:35 10° 332° (NNW) 2,301 6.6 -18.0°
Maximum altitude 03:05:43 63° 253° (WSW) 848 3.9 -17.3°
Drops below altitude 10° 03:10:52 10° 172° (S) 2,295 6.2 -16.6°
Sets 03:13:15 0° 170° (S) 3,221 7.0 -16.3°
